Torna al catalogo

STARLINK-4430

AttivoComunicazioniSSO
NORAD 53485·PAYLOAD·🇺🇸 United States

Lanciato Aug 12, 2022 da Vandenberg Space Force Base

Loading…

Prossimi Passaggi (prossime 24 ore)

TLE

AggiornatoSource: CelesTrak SupGP

Epoca: Sep 14, 2026, 14:02 UTC

1 53485C 22099W   26257.58520833  .00016102  00000+0  97997-3 0  2573
2 53485  97.2857  11.7278 0001419  85.0506 194.4644 15.10502034    14

Traccia STARLINK-4430 in tempo reale con AllMySat

Download on the App Store